Weather History for KOXB - March, 2013

Change the Weather History Date:

Saturday, March 30, 2013

  Actual Average (KSBY) Record (KSBY)
Temperature  
Mean Temperature 44 °F 49 °F  
Max Temperature 53 °F 60 °F 86 °F (1998)
Min Temperature 35 °F 39 °F 24 °F (1941)
Degree Days  
Heating Degree Days 22 16  
Month to date heating degree days 614  
Since 1 July heating degree days 3919  
Cooling Degree Days 0 0  
Month to date cooling degree days 0  
Year to date cooling degree days 0  
Moisture  
Dew Point 35 °F    
Average Humidity 74    
Maximum Humidity 93    
Minimum Humidity 46    
Precipitation  
Precipitation 0.00 in 0.15 in 2.80 in (1939)
Month to date precipitation 4.28  
Year to date precipitation 11.24  
Snow  
Snow 0.00 in 0.00 in 3.00 in (1941)
Month to date snowfall 0.8  
Since 1 July snowfall 9.1  
Snow Depth -    
Sea Level Pressure  
Sea Level Pressure 30.19 in    
Wind  
Wind Speed 4 mph (South)    
Max Wind Speed 9 mph    
Max Gust Speed -    
Visibility 10 miles    
Events      
T = Trace of Precipitation, MM = Missing Value Source: NWS Daily Summary

Daily Weather History Graph

Daily Weather History Graph

Search for Another Location

Airport or City:

Trip Planner

Search our weather history database for the weather conditions in past years. The results will help you decide how hot, cold, wet, or windy it might be!

Date:

Astronomy

Mar. 30, 2013 Rise Set
Actual Time 6:48 AM EDT 7:22 PM EDT
Civil Twilight 6:21 AM EDT 7:48 PM EDT
Nautical Twilight 5:50 AM EDT 8:20 PM EDT
Astronomical Twilight 5:18 AM EDT 8:52 PM EDT
Moon 11:22 PM EDT (3/30) 8:44 AM EDT (3/30)
Length of Visible Light 13h 27m
Length of Day
12h 33m
Waning Gibbous, 86% of the Moon is Illuminated
Mar 30
Waning Gibbous
Apr 3
Last Quarter
Apr 10
New
Apr 18
First Quarter
Apr 25
Full

Hourly Weather History & Observations

Time (EDT) Temp. Windchill Dew Point Humidity Pressure Visibility Wind Dir Wind Speed Gust Speed Precip Events Conditions
12:53 AM 42.1 °F 38.4 °F 33.1 °F 70% 30.19 in 10.0 mi West 5.8 mph - N/A   Overcast
1:53 AM 36.0 °F 33.3 °F 32.0 °F 86% 30.19 in 10.0 mi WNW 3.5 mph - N/A   Partly Cloudy
2:53 AM 39.0 °F 36.8 °F 33.1 °F 79% 30.19 in 10.0 mi WNW 3.5 mph - N/A   Mostly Cloudy
3:53 AM 37.9 °F 35.5 °F 33.1 °F 83% 30.18 in 10.0 mi West 3.5 mph - N/A   Overcast
4:53 AM 37.0 °F 34.5 °F 33.1 °F 86% 30.18 in 10.0 mi WNW 3.5 mph - N/A   Mostly Cloudy
5:53 AM 35.1 °F 32.2 °F 33.1 °F 92% 30.19 in 10.0 mi WNW 3.5 mph - N/A   Overcast
6:53 AM 36.0 °F - 33.1 °F 89% 30.20 in 10.0 mi Calm Calm - N/A   Overcast
7:53 AM 37.9 °F - 35.1 °F 89% 30.22 in 9.0 mi Calm Calm - N/A   Mostly Cloudy
8:53 AM 46.0 °F - 35.1 °F 66% 30.22 in 10.0 mi Calm Calm - N/A   Partly Cloudy
9:53 AM 51.1 °F - 30.9 °F 46% 30.22 in 10.0 mi North 4.6 mph - N/A   Scattered Clouds
10:53 AM 52.0 °F - 33.1 °F 49% 30.22 in 10.0 mi ESE 5.8 mph - N/A   Clear
11:53 AM 51.1 °F - 32.0 °F 48% 30.21 in 10.0 mi East 9.2 mph - N/A   Partly Cloudy
12:53 PM 50.0 °F - 33.1 °F 52% 30.20 in 10.0 mi ESE 9.2 mph - N/A   Scattered Clouds
1:53 PM 48.0 °F - 34.0 °F 58% 30.18 in 10.0 mi East 6.9 mph - N/A   Mostly Cloudy
2:53 PM 48.0 °F - 34.0 °F 58% 30.17 in 10.0 mi ESE 6.9 mph - N/A   Mostly Cloudy
3:53 PM 48.9 °F - 33.1 °F 54% 30.16 in 10.0 mi SE 6.9 mph - N/A   Mostly Cloudy
4:53 PM 48.0 °F - 35.1 °F 61% 30.15 in 10.0 mi South 5.8 mph - N/A   Clear
5:53 PM 46.9 °F - 39.0 °F 74% 30.16 in 10.0 mi Variable 6.9 mph - N/A   Scattered Clouds
6:53 PM 45.0 °F 42.6 °F 39.0 °F 80% 30.16 in 10.0 mi SSE 4.6 mph - N/A   Clear
7:53 PM 43.0 °F - 41.0 °F 93% 30.17 in 8.0 mi Calm Calm - N/A   Clear
8:53 PM 44.1 °F - 41.0 °F 89% 30.17 in 10.0 mi Calm Calm - N/A   Clear
9:53 PM 44.1 °F 42.5 °F 41.0 °F 89% 30.19 in 10.0 mi SSW 3.5 mph - N/A   Clear
10:53 PM 44.1 °F 42.5 °F 42.1 °F 93% 30.19 in 10.0 mi SSW 3.5 mph - N/A   Clear
11:53 PM 42.1 °F - 39.9 °F 92% 30.18 in 10.0 mi Calm Calm - N/A   Clear